PBO Station Position Time Series. Reference Frame : NAM14
Format Version,1.1.0
4-character ID,P242
Station name,FrazierAirCN2004
Begin Date, 2004-12-18
End Date, 2019-10-07
Release Date, 2019-10-08
Reference position, 36.9539320959 North Latitude, -121.4631842579 East Longitude, 14.75743 meters elevation,
Date, North (mm), East (mm), Vertical (mm), North Std. Deviation (mm), East Std. Deviation (mm),              Vertical Std. Deviation (mm), Quality,
2004-12-18,0.00, 0.00, 0.00, 2.04, 1.71, 7.55, repro,
2004-12-19,-0.79, -0.84, 2.19, 1.98, 1.65, 7.29, repro,
2004-12-20,-0.66, -0.62, 11.21, 1.96, 1.64, 7.26, repro,
2004-12-21,-0.83, -1.57, 6.38, 1.98, 1.66, 7.45, repro,
2004-12-22,-0.37, 0.03, -1.12, 1.97, 1.66, 7.43, repro,
2004-12-23,-0.38, -0.68, 4.70, 1.92, 1.62, 7.15, repro,
2004-12-24,-0.90, -0.58, 4.56, 1.96, 1.65, 7.25, repro,
2004-12-25,-0.96, -0.78, 13.54, 1.95, 1.65, 7.22, repro,
2004-12-26,-1.04, -1.49, 11.81, 2.01, 1.66, 7.39, repro,
2004-12-27,3.07, -1.70, 18.42, 2.02, 1.65, 7.47, repro,
2004-12-28,-0.27, -0.25, 14.54, 2.09, 1.70, 7.67, repro,
2004-12-29,0.84, -0.27, 10.37, 2.05, 1.67, 7.56, repro,
2004-12-30,-2.07, -2.86, 8.25, 2.17, 1.75, 7.90, repro,
2004-12-31,0.85, 0.29, 14.65, 2.19, 1.81, 7.93, repro,
2005-01-01,-0.39, -0.33, 4.33, 2.04, 1.66, 7.57, repro,
2005-01-02,0.98, 0.69, 4.75, 2.10, 1.69, 7.68, repro,
2005-01-03,-0.39, -0.05, 5.87, 2.09, 1.68, 7.64, repro,
2005-01-04,-1.15, -2.22, 6.08, 2.16, 1.74, 7.71, repro,
2005-01-05,-0.14, 0.10, 5.56, 2.05, 1.66, 7.59, repro,
2005-01-06,1.35, 0.56, 6.05, 2.16, 1.83, 7.95, repro,
2005-01-07,-3.00, -0.97, 15.62, 2.08, 1.70, 7.80, repro,
2005-01-08,-1.77, -1.35, 10.67, 2.07, 1.75, 7.71, repro,
2005-01-09,-2.26, -0.73, 11.14, 1.98, 1.65, 7.43, repro,
2005-01-10,-0.58, 0.42, 8.47, 2.14, 1.88, 8.21, repro,
2005-01-11,-0.79, 0.49, 17.75, 2.09, 1.77, 7.84, repro,
2005-01-12,0.61, 0.72, 5.62, 2.15, 1.90, 8.23, repro,
2005-01-13,0.47, 1.97, 4.38, 2.10, 1.80, 7.99, repro,
2005-01-14,0.78, 0.29, 3.78, 2.09, 1.79, 7.70, repro,
2005-01-15,1.24, 0.20, 4.09, 2.25, 2.03, 8.60, repro,
2005-01-16,-0.19, 0.38, -2.62, 2.12, 1.77, 7.73, repro,
2005-01-17,0.91, 1.34, -0.70, 2.03, 1.72, 7.49, repro,
2005-01-18,1.77, 0.85, 0.59, 2.05, 1.74, 7.66, repro,
2005-01-19,1.08, 1.69, 2.27, 2.07, 1.69, 7.56, repro,
2005-01-20,0.45, 0.55, 6.94, 2.06, 1.73, 7.78, repro,
2005-01-21,-0.05, 0.45, 6.85, 2.05, 1.76, 7.79, repro,
2005-01-22,0.62, 0.76, 8.93, 2.01, 1.72, 7.58, repro,
2005-01-23,1.18, 0.40, 5.67, 1.98, 1.66, 7.44, repro,
2005-01-24,0.88, -0.28, 7.54, 2.03, 1.70, 7.64, repro,
2005-01-25,-0.50, -0.95, 15.04, 2.05, 1.75, 7.77, repro,
2005-01-26,0.60, -0.63, 19.80, 1.99, 1.65, 7.42, repro,
2005-01-27,1.64, 0.43, 13.73, 1.98, 1.65, 7.37, repro,
2005-01-28,1.83, 4.05, 5.82, 2.00, 1.71, 7.50, repro,
2005-01-29,0.81, 0.44, 8.43, 1.98, 1.63, 7.32, repro,
2005-01-30,0.81, 0.52, 7.76, 2.01, 1.66, 7.44, repro,
2005-01-31,2.10, 1.21, 8.16, 1.99, 1.67, 7.45, repro,
2005-02-01,0.16, 1.06, 10.54, 1.99, 1.66, 7.36, repro,
2005-02-02,1.89, 1.43, 8.13, 1.96, 1.61, 7.23, repro,
2005-02-03,0.27, 1.89, 11.55, 2.03, 1.63, 7.39, repro,
2005-02-04,1.56, 1.40, 9.82, 1.97, 1.61, 7.26, repro,
2005-02-05,1.95, 0.70, 13.41, 1.98, 1.62, 7.31, repro,
2005-02-06,1.01, 0.79, 14.72, 1.97, 1.62, 7.25, repro,
2005-02-07,1.31, 1.56, 15.13, 1.96, 1.60, 7.18, repro,
2005-02-08,1.69, 0.87, 10.66, 2.00, 1.65, 7.36, repro,
2005-02-09,1.89, 1.48, 17.17, 2.00, 1.66, 7.45, repro,
2005-02-10,0.91, 1.16, 16.35, 1.97, 1.60, 7.22, repro,
2005-02-11,1.18, 1.23, 23.72, 1.98, 1.61, 7.24, repro,
2005-02-12,1.54, 0.33, 16.86, 1.97, 1.60, 7.21, repro,
2005-02-13,1.17, 1.11, 17.55, 1.97, 1.60, 7.18, repro,
2005-02-14,2.36, 1.44, 18.71, 1.99, 1.61, 7.25, repro,
2005-02-15,0.56, 0.56, 18.29, 1.98, 1.62, 7.29, repro,
2005-02-16,1.67, -0.33, 19.93, 1.98, 1.62, 7.29, repro,
2005-02-17,1.71, 1.35, 18.02, 2.05, 1.64, 7.46, repro,
2005-02-18,2.86, 0.16, 15.40, 1.99, 1.61, 7.30, repro,
2005-02-19,0.23, -0.25, 17.01, 1.99, 1.62, 7.32, repro,
2005-02-20,1.53, 0.20, 16.89, 1.99, 1.61, 7.30, repro,
2005-02-21,4.53, 0.86, 15.05, 2.05, 1.67, 7.60, repro,
2005-02-22,1.61, 0.80, 13.48, 1.98, 1.61, 7.24, repro,
2005-02-23,1.35, 0.79, 13.73, 2.03, 1.63, 7.38, repro,
2005-02-24,1.63, 0.93, 16.80, 2.05, 1.63, 7.43, repro,
2005-02-25,1.89, 0.63, 14.14, 2.05, 1.62, 7.41, repro,
2005-02-26,1.23, 1.18, 17.42, 2.05, 1.62, 7.38, repro,
2005-02-27,0.50, 0.96, 17.03, 2.03, 1.61, 7.33, repro,
2005-02-28,1.22, 3.03, 13.59, 2.03, 1.61, 7.34, repro,
2005-03-01,0.35, 0.92, 16.11, 2.04, 1.61, 7.37, repro,
2005-03-02,1.01, 0.22, 18.08, 2.07, 1.67, 7.66, repro,
2005-03-03,1.91, 0.95, 12.91, 2.04, 1.61, 7.37, repro,
2005-03-04,1.87, 1.06, 6.74, 2.15, 1.72, 7.77, repro,
2005-03-05,2.82, 1.78, 10.48, 2.04, 1.61, 7.35, repro,
2005-03-06,1.62, 2.43, 17.14, 2.04, 1.61, 7.36, repro,
2005-03-07,2.85, 2.82, 14.01, 2.04, 1.62, 7.38, repro,
2005-03-08,2.54, 2.90, 10.08, 2.06, 1.62, 7.43, repro,
2005-03-09,3.14, 2.22, 10.93, 2.07, 1.66, 7.50, repro,
2005-03-10,1.74, 2.87, 17.62, 2.06, 1.62, 7.40, repro,
2005-03-11,0.83, 1.95, 19.48, 2.04, 1.60, 7.33, repro,
2005-03-12,0.85, 2.14, 19.38, 2.05, 1.61, 7.36, repro,
2005-03-13,1.44, 1.87, 11.62, 2.05, 1.62, 7.45, repro,
2005-03-14,2.49, 1.24, 13.61, 2.06, 1.61, 7.45, repro,
2005-03-15,1.71, 2.47, 13.16, 2.08, 1.67, 7.60, repro,
2005-03-16,0.67, 2.28, 18.13, 2.08, 1.65, 7.57, repro,
2005-03-17,1.44, 2.71, 13.86, 2.06, 1.62, 7.42, repro,
2005-03-18,1.53, 1.96, 17.15, 2.06, 1.62, 7.45, repro,
2005-03-19,-0.75, 1.68, 31.66, 2.07, 1.63, 7.55, repro,
2005-03-20,1.88, 3.01, 29.45, 2.09, 1.65, 7.62, repro,
2005-03-21,0.93, 1.47, 20.84, 2.11, 1.64, 7.51, repro,
2005-03-22,-1.04, 0.38, 25.53, 2.07, 1.62, 7.48, repro,
2005-03-23,-0.32, 0.54, 30.60, 2.06, 1.62, 7.44, repro,
2005-03-24,1.02, 0.98, 20.10, 2.06, 1.60, 7.42, repro,
2005-03-25,0.56, 1.25, 18.17, 2.05, 1.61, 7.41, repro,
2005-03-26,1.21, 2.07, 20.73, 2.05, 1.62, 7.39, repro,
2005-03-27,1.68, 2.39, 23.68, 2.06, 1.61, 7.39, repro,
2005-03-28,0.56, -0.31, 23.89, 2.07, 1.62, 7.49, repro,
2005-03-29,1.74, 0.71, 30.36, 2.08, 1.67, 7.61, repro,
2005-03-30,1.52, 0.37, 24.97, 2.09, 1.66, 7.50, repro,
2005-03-31,1.95, 0.96, 22.33, 2.10, 1.63, 7.56, repro,
2005-04-01,1.44, 1.63, 20.12, 2.05, 1.61, 7.41, repro,
2005-04-02,0.95, 1.71, 19.19, 2.06, 1.61, 7.39, repro,
2005-04-03,0.89, 1.59, 33.50, 2.18, 1.68, 7.95, repro,
2005-04-04,1.86, 0.93, 27.51, 2.14, 1.64, 7.81, repro,
2005-04-05,2.08, 1.32, 22.53, 2.06, 1.63, 7.57, repro,
2005-04-06,1.55, 1.26, 21.38, 2.24, 1.72, 8.33, repro,
2005-04-07,1.00, 1.67, 21.84, 2.15, 1.73, 8.00, repro,
2005-04-08,0.94, -0.70, 31.35, 2.11, 1.63, 7.77, repro,
2005-04-09,0.97, 1.34, 30.30, 2.12, 1.65, 7.85, repro,
2005-04-10,1.05, -0.01, 26.82, 2.13, 1.65, 7.85, repro,
2005-04-11,1.76, 1.85, 21.70, 2.20, 1.67, 8.09, repro,
2005-04-12,1.47, 0.74, 21.68, 2.11, 1.62, 7.75, repro,
2005-04-13,1.61, 0.21, 27.18, 2.11, 1.62, 7.74, repro,
2005-04-14,2.06, 1.97, 22.90, 2.18, 1.69, 7.67, repro,
2005-04-15,0.12, 1.38, 25.28, 2.17, 1.67, 7.96, repro,
2005-04-16,1.27, 0.68, 30.23, 2.16, 1.68, 8.05, repro,
2005-04-17,1.32, 1.22, 23.75, 2.09, 1.63, 7.51, repro,
2005-04-18,1.35, 0.82, 23.55, 2.12, 1.63, 7.74, repro,
2005-04-19,2.75, 1.97, 20.68, 2.06, 1.61, 7.35, repro,
2005-04-20,2.36, 2.06, 24.38, 2.24, 1.69, 8.06, repro,
2005-04-21,-0.69, 1.81, 28.29, 2.13, 1.64, 7.75, repro,
2005-04-22,-0.14, 2.23, 23.35, 2.12, 1.69, 7.70, repro,
2005-04-23,-0.99, 1.09, 32.78, 2.16, 1.66, 7.62, repro,
2005-04-24,-1.32, 1.54, 27.86, 2.12, 1.63, 7.72, repro,
2005-04-25,-0.55, 1.37, 17.38, 2.10, 1.62, 7.61, repro,
2005-04-26,-1.24, 1.68, 25.55, 2.10, 1.63, 7.67, repro,
2005-04-27,-1.36, 1.54, 22.11, 2.09, 1.64, 7.54, repro,
2005-04-28,-3.97, 0.05, 26.57, 2.12, 1.67, 7.68, repro,
2005-04-29,-0.76, 1.22, 22.06, 2.07, 1.62, 7.43, repro,
2005-04-30,-0.67, 1.19, 19.39, 2.05, 1.61, 7.32, repro,
2005-05-01,-0.21, 1.30, 26.07, 2.11, 1.62, 7.67, repro,
2005-05-02,-0.08, 1.26, 25.24, 2.07, 1.61, 7.40, repro,
2005-05-03,0.19, 1.90, 23.88, 2.07, 1.66, 7.61, repro,
2005-05-04,-0.58, 2.51, 26.38, 2.06, 1.61, 7.45, repro,
2005-05-05,-1.74, 2.19, 30.52, 2.04, 1.59, 7.32, repro,
2005-05-06,-0.77, 1.65, 26.00, 2.04, 1.60, 7.31, repro,
2005-05-07,-0.03, 3.12, 27.48, 2.05, 1.62, 7.40, repro,
2005-05-08,0.40, 2.82, 24.60, 2.05, 1.62, 7.43, repro,
2005-05-09,-3.56, 2.59, 39.10, 2.05, 1.62, 7.48, repro,
2005-05-10,-0.73, 2.01, 26.70, 2.11, 1.64, 7.66, repro,
2005-05-11,1.23, 1.29, 26.89, 2.13, 1.69, 7.80, repro,
2005-05-12,0.50, 1.10, 20.93, 2.12, 1.71, 7.86, repro,
2005-05-13,0.96, 1.75, 17.61, 2.14, 1.75, 7.98, repro,
2005-05-14,0.22, 1.47, 25.07, 2.11, 1.73, 7.74, repro,
2005-05-15,-0.39, 2.84, 22.74, 2.08, 1.69, 7.57, repro,
2005-05-16,1.70, 1.43, 33.44, 2.10, 1.69, 7.62, repro,
2005-05-17,-2.14, -0.96, 38.37, 2.16, 1.69, 7.66, repro,
2005-05-18,1.62, 2.87, 28.08, 2.16, 1.70, 7.72, repro,
2005-05-19,0.87, 4.06, 28.87, 2.09, 1.68, 7.53, repro,
2005-05-20,-0.28, 2.51, 28.15, 2.07, 1.68, 7.50, repro,
2005-05-21,-0.39, 1.73, 21.19, 2.07, 1.68, 7.52, repro,
2005-05-22,-0.79, 1.49, 22.10, 2.09, 1.69, 7.61, repro,
2005-05-23,-1.74, 1.38, 21.41, 2.07, 1.68, 7.48, repro,
2005-05-24,-1.60, 0.43, 42.03, 2.09, 1.68, 7.53, repro,
2005-05-25,-1.44, 1.72, 23.11, 2.07, 1.67, 7.45, repro,
2005-05-26,-1.35, 1.53, 20.19, 2.06, 1.68, 7.51, repro,
2005-05-27,-0.39, 2.36, 19.88, 2.09, 1.68, 7.54, repro,
2005-05-28,-1.78, 1.68, 22.40, 2.09, 1.68, 7.53, repro,
2005-05-29,-1.67, 0.41, 22.49, 2.17, 1.78, 7.94, repro,
2005-05-30,-1.28, 1.34, 23.09, 2.09, 1.68, 7.52, repro,
2005-05-31,-1.17, 1.43, 18.92, 2.07, 1.67, 7.50, repro,
2005-06-01,-2.46, 2.14, 27.94, 2.08, 1.62, 7.49, repro,
2005-06-02,-2.19, 1.37, 22.86, 2.06, 1.62, 7.47, repro,
2005-06-03,-1.07, 1.84, 20.87, 2.05, 1.61, 7.40, repro,
2005-06-04,-3.43, 1.65, 22.54, 2.06, 1.61, 7.38, repro,
2005-06-05,-1.71, 3.08, 14.60, 2.07, 1.66, 7.50, repro,
2005-06-06,-1.55, 2.14, 15.54, 2.13, 1.65, 7.61, repro,
2005-06-07,-3.04, 1.96, 21.89, 2.06, 1.62, 7.48, repro,
2005-06-08,-3.55, 1.98, 27.63, 2.05, 1.62, 7.41, repro,
2005-06-09,-4.08, 1.52, 19.96, 2.07, 1.64, 7.47, repro,
2005-06-10,-4.89, 2.74, 21.42, 2.09, 1.67, 7.56, repro,
2005-06-11,-3.35, 1.81, 16.94, 2.15, 1.71, 7.72, repro,
2005-06-12,-3.30, 0.79, 20.17, 2.17, 1.71, 7.82, repro,
2005-06-13,-2.98, 0.59, 21.74, 2.16, 1.71, 7.75, repro,
2005-06-14,-4.75, 2.66, 16.12, 2.14, 1.69, 7.67, repro,
2005-06-15,-2.44, 2.88, 23.93, 2.07, 1.62, 7.39, repro,
2005-06-16,-5.92, 3.07, 15.30, 2.12, 1.63, 7.50, repro,
2005-06-17,-5.00, -0.23, 10.10, 2.15, 1.65, 7.62, repro,
2005-06-18,-5.26, 1.05, 15.35, 2.05, 1.62, 7.39, repro,
2005-06-19,-4.68, 1.14, 14.77, 2.11, 1.65, 7.51, repro,
2005-06-20,-4.98, 1.52, 14.15, 2.07, 1.63, 7.44, repro,
2005-06-21,-5.44, 2.03, 12.55, 2.06, 1.62, 7.40, repro,
2005-06-22,-4.96, 2.75, 10.68, 2.05, 1.61, 7.34, repro,
2005-06-23,-6.29, 3.37, 10.92, 2.11, 1.65, 7.51, repro,
2005-06-24,-5.10, 2.59, 9.95, 2.09, 1.65, 7.56, repro,
2005-06-25,-6.10, 2.50, 11.43, 2.09, 1.65, 7.58, repro,
2005-06-26,-5.91, 3.31, 9.36, 2.12, 1.66, 7.61, repro,
2005-06-27,-5.02, 2.03, 3.40, 2.06, 1.62, 7.40, repro,
2005-06-28,-4.30, 3.00, 6.28, 2.05, 1.61, 7.33, repro,
2005-06-29,-5.12, 2.03, 9.55, 2.05, 1.61, 7.36, repro,
2005-06-30,-5.76, 2.51, 14.50, 2.06, 1.62, 7.42, repro,
2005-07-01,-5.68, 3.09, 10.84, 2.07, 1.62, 7.46, repro,
2005-07-02,-6.47, 2.08, 9.15, 2.05, 1.62, 7.40, repro,
2005-07-03,-6.41, 1.73, 12.88, 2.05, 1.62, 7.37, repro,
2005-07-04,-5.20, 0.88, 9.76, 2.04, 1.62, 7.34, repro,
2005-07-05,-5.31, 2.41, 10.42, 2.05, 1.62, 7.37, repro,
2005-07-06,-5.47, 2.80, 12.68, 2.06, 1.63, 7.47, repro,
2005-07-07,-6.19, 1.63, 14.86, 2.12, 1.65, 7.58, repro,
2005-07-08,-6.50, 2.30, 12.89, 2.05, 1.62, 7.37, repro,
2005-07-09,-5.95, 3.48, 10.50, 2.05, 1.62, 7.36, repro,
2005-07-10,-5.06, 3.24, 8.25, 2.17, 1.71, 7.81, repro,
2005-07-11,-6.13, 3.10, 12.62, 2.11, 1.65, 7.51, repro,
2005-07-12,-4.34, 1.07, 8.15, 2.06, 1.63, 7.45, repro,
2005-07-13,-5.25, 2.85, 10.35, 2.05, 1.62, 7.39, repro,
2005-07-14,-7.01, 3.37, 11.86, 2.08, 1.67, 7.57, repro,
2005-07-15,-6.34, 3.36, 5.30, 2.05, 1.62, 7.40, repro,
2005-07-16,-6.73, 2.78, 10.65, 2.05, 1.62, 7.41, repro,
2005-07-17,-6.08, 2.89, 7.71, 2.03, 1.61, 7.35, repro,
2005-07-18,-7.95, 2.09, 9.65, 2.04, 1.61, 7.35, repro,
2005-07-19,-5.26, 1.82, 3.89, 2.05, 1.61, 7.38, repro,
2005-07-20,-5.21, 0.99, -0.78, 2.04, 1.61, 7.36, repro,
2005-07-21,-6.89, 2.84, 18.50, 2.04, 1.61, 7.37, repro,
2005-07-22,-5.74, 2.28, 10.41, 2.05, 1.62, 7.44, repro,
2005-07-23,-7.59, 3.25, 10.24, 2.05, 1.62, 7.44, repro,
2005-07-24,-5.79, 4.36, 5.24, 2.08, 1.65, 7.58, repro,
2005-07-25,-4.90, 3.40, 0.94, 2.09, 1.65, 7.60, repro,
2005-07-26,-5.84, 1.58, 6.22, 2.10, 1.71, 7.67, repro,
2005-07-27,-6.12, 2.68, 4.47, 2.12, 1.72, 7.74, repro,
2005-07-28,-5.97, 2.19, -0.45, 2.12, 1.72, 7.73, repro,
2005-07-29,-6.04, 3.10, -3.35, 2.16, 1.69, 7.77, repro,
2005-07-30,-6.99, 2.77, -0.20, 2.09, 1.67, 7.63, repro,
2005-07-31,-6.41, 2.59, 0.44, 2.07, 1.64, 7.50, repro,
2005-08-01,-8.31, 2.43, 5.57, 2.12, 1.69, 7.67, repro,
2005-08-02,-7.48, 4.15, 1.31, 2.08, 1.66, 7.58, repro,
2005-08-03,-6.76, 1.13, -1.65, 2.05, 1.61, 7.39, repro,
2005-08-04,-5.93, 2.72, -1.47, 2.06, 1.62, 7.48, repro,
2005-08-05,-7.05, 3.44, -0.13, 2.08, 1.66, 7.56, repro,
2005-08-06,-7.21, 4.80, 0.77, 2.05, 1.63, 7.45, repro,
2005-08-07,-7.59, 4.16, -0.28, 2.05, 1.63, 7.40, repro,
2005-08-08,-7.38, 2.73, 3.93, 2.05, 1.62, 7.38, repro,
2005-08-09,-6.36, 3.90, -3.63, 2.05, 1.62, 7.38, repro,
2005-08-10,-6.53, 4.14, -1.16, 2.13, 1.66, 7.59, repro,
2005-08-11,-8.00, 4.16, -1.77, 2.12, 1.74, 7.71, repro,
2005-08-12,-8.72, 3.48, -1.63, 2.22, 1.78, 7.98, repro,
2005-08-13,-7.51, 2.84, 0.53, 2.09, 1.68, 7.57, repro,
2005-08-14,-9.62, 4.33, 0.63, 2.22, 1.70, 7.90, repro,
2005-08-15,-10.06, 4.88, 0.19, 2.17, 1.71, 7.78, repro,
2005-08-16,-8.50, 5.10, -0.26, 2.11, 1.69, 7.54, repro,
2005-08-17,-8.46, 4.89, -6.02, 2.09, 1.68, 7.63, repro,
2005-08-18,-7.73, 5.11, 1.41, 2.06, 1.63, 7.45, repro,
2005-08-19,-6.13, 2.76, 0.64, 2.06, 1.62, 7.44, repro,
2005-08-20,-7.56, 4.03, -1.16, 2.18, 1.71, 7.72, repro,
2005-08-21,-7.02, 4.72, -0.79, 2.11, 1.68, 7.63, repro,
2005-08-22,-8.08, 3.29, 1.91, 2.05, 1.63, 7.39, repro,
2005-08-23,-7.24, 3.41, -0.95, 2.05, 1.63, 7.44, repro,
2005-08-24,-6.43, 3.82, -3.80, 2.08, 1.63, 7.49, repro,
2005-08-25,-6.83, 3.44, 1.72, 2.12, 1.68, 7.63, repro,
2005-08-26,-7.26, 3.32, -4.91, 2.09, 1.63, 7.49, repro,
2005-08-27,-7.38, 4.97, 1.44, 2.13, 1.65, 7.58, repro,
2005-08-28,-7.54, 4.12, -2.20, 2.04, 1.62, 7.34, repro,
2005-08-29,-8.21, 4.14, -4.95, 2.09, 1.68, 7.58, repro,
2005-08-30,-7.14, 3.83, -2.19, 2.11, 1.69, 7.60, repro,
2005-08-31,-6.59, 3.51, -4.20, 2.10, 1.68, 7.55, repro,
2005-09-01,-8.07, 3.92, 0.53, 2.14, 1.64, 7.53, repro,
2005-09-02,-8.25, 4.78, -4.25, 2.05, 1.62, 7.37, repro,
2005-09-03,-7.56, 4.05, -4.57, 2.04, 1.62, 7.36, repro,
2005-09-04,-6.36, 3.95, -7.13, 2.18, 1.71, 7.95, repro,
2005-09-05,-7.03, 5.27, -6.61, 2.06, 1.63, 7.41, repro,
2005-09-06,-8.70, 3.16, -6.15, 2.06, 1.61, 7.33, repro,
2005-09-07,-7.70, 3.19, -8.77, 2.19, 1.70, 7.73, repro,
2005-09-08,-6.89, 3.16, -4.47, 2.13, 1.64, 7.59, repro,
2005-09-09,-7.70, 2.76, -7.68, 2.11, 1.64, 7.58, repro,
2005-09-10,-5.75, 4.72, -3.30, 2.11, 1.65, 7.62, repro,
2005-09-11,-7.31, 3.68, -1.66, 2.12, 1.63, 7.50, repro,
2005-09-12,-8.38, 4.70, -7.47, 2.11, 1.63, 7.48, repro,
2005-09-13,-6.70, 3.57, -4.70, 2.21, 1.72, 7.97, repro,
2005-09-14,-7.45, 4.54, -3.33, 2.13, 1.68, 7.72, repro,
2005-09-15,-6.55, 4.22, -5.16, 2.13, 1.68, 7.72, repro,
2005-09-16,-7.55, 4.54, -1.46, 2.14, 1.69, 7.69, repro,
2005-09-17,-6.47, 4.49, -8.30, 2.04, 1.61, 7.30, repro,
2005-09-18,-7.07, 4.11, -2.08, 2.04, 1.61, 7.31, repro,
2005-09-19,-7.33, 4.30, -8.45, 2.11, 1.64, 7.66, repro,
2005-09-20,-8.17, 3.86, -6.27, 2.03, 1.62, 7.36, repro,
2005-09-21,-7.47, 3.80, -3.37, 2.07, 1.66, 7.53, repro,
2005-09-22,-6.63, 4.30, -9.41, 2.04, 1.62, 7.35, repro,
2005-09-23,-7.25, 2.66, -6.56, 2.09, 1.66, 7.44, repro,
2005-09-24,-6.30, 3.12, -4.73, 2.08, 1.66, 7.57, repro,
2005-09-25,-6.89, 3.59, -1.79, 2.07, 1.67, 7.56, repro,
2005-09-26,-6.94, 4.97, -3.70, 2.09, 1.66, 7.60, repro,
2005-09-27,-5.68, 4.26, -1.63, 2.07, 1.67, 7.54, repro,
2005-09-28,-6.48, 3.42, 2.68, 2.11, 1.64, 7.46, repro,
2005-09-29,-7.17, 3.19, -1.14, 2.13, 1.64, 7.50, repro,
2005-09-30,-6.60, 3.48, 5.63, 2.05, 1.62, 7.41, repro,
2005-10-01,-7.13, 2.61, 0.56, 2.04, 1.62, 7.35, repro,
2005-10-02,-6.01, 3.23, 1.81, 2.13, 1.69, 7.78, repro,
2005-10-03,-7.33, 4.47, 1.75, 2.05, 1.65, 7.43, repro,
2005-10-04,-6.87, 4.73, -8.09, 2.12, 1.64, 7.51, repro,
2005-10-05,-7.16, 3.50, -5.74, 2.12, 1.64, 7.61, repro,
2005-10-06,-8.33, 3.06, -0.25, 2.06, 1.62, 7.35, repro,
2005-10-07,-6.93, 2.97, 5.08, 2.11, 1.64, 7.58, repro,
2005-10-08,-7.61, 3.61, 1.38, 2.05, 1.60, 7.29, repro,
2005-10-09,-6.15, 2.73, 2.52, 2.05, 1.60, 7.27, repro,
2005-10-10,-7.32, 3.10, 1.94, 2.12, 1.64, 7.63, repro,
2005-10-11,-7.09, 2.92, -1.96, 2.09, 1.67, 7.59, repro,
2005-10-12,-6.10, 2.66, 0.00, 2.06, 1.65, 7.45, repro,
2005-10-13,-5.95, 3.46, 1.36, 2.08, 1.67, 7.47, repro,
2005-10-14,-5.62, 3.56, 5.80, 2.04, 1.61, 7.27, repro,
2005-10-15,-6.54, 3.25, 7.04, 2.15, 1.73, 7.88, repro,
2005-10-16,-6.93, 1.56, 1.34, 2.10, 1.68, 7.59, repro,
2005-10-17,-4.23, 2.08, 2.31, 2.14, 1.69, 7.78, repro,
2005-10-18,-6.24, 3.22, 2.46, 2.17, 1.77, 7.96, repro,
2005-10-19,-6.80, 2.63, 7.38, 2.19, 1.70, 8.04, repro,
2005-10-20,-5.57, 2.22, -1.96, 2.19, 1.67, 7.75, repro,
2005-10-21,-5.26, 1.79, 3.36, 2.18, 1.74, 7.98, repro,
2005-10-22,-4.92, 2.79, -1.94, 2.06, 1.60, 7.32, repro,
2005-10-23,-3.68, 1.99, -1.89, 2.08, 1.66, 7.54, repro,
2005-10-24,-5.21, 2.79, -15.73, 2.07, 1.66, 7.52, repro,
2005-10-25,-3.71, 1.92, 3.33, 2.06, 1.66, 7.47, repro,
2005-10-26,-4.35, 1.92, 2.05, 2.13, 1.72, 7.73, repro,
2005-10-27,-4.24, 2.93, 4.04, 2.08, 1.65, 7.56, repro,
2005-10-28,-3.60, 1.70, 4.49, 2.05, 1.61, 7.38, repro,
2005-10-29,-4.07, 2.07, 7.48, 2.08, 1.66, 7.61, repro,
2005-10-30,-4.50, 2.61, 8.57, 2.04, 1.61, 7.33, repro,
2005-10-31,-4.20, 2.29, -5.03, 2.19, 1.75, 7.94, repro,
2005-11-01,-2.41, 2.38, 3.56, 2.24, 1.82, 8.12, repro,
2005-11-02,-3.47, 3.66, 8.43, 2.18, 1.80, 7.94, repro,
2005-11-03,-3.01, 1.42, 3.23, 2.13, 1.73, 7.68, repro,
2005-11-04,-2.99, 3.26, -0.84, 2.13, 1.72, 7.67, repro,
2005-11-05,-4.44, 1.51, 3.01, 2.17, 1.81, 7.92, repro,
2005-11-06,-3.24, 1.52, 3.67, 2.16, 1.80, 7.90, repro,
2005-11-07,-2.47, 1.87, 3.58, 2.16, 1.82, 7.96, repro,
2005-11-08,-2.35, 1.95, -0.07, 2.13, 1.74, 7.79, repro,
2005-11-09,-3.35, 2.57, 0.74, 2.22, 1.85, 8.08, repro,
2005-11-10,-3.55, 2.05, 2.28, 2.34, 1.86, 8.49, repro,
2005-11-11,-1.89, 1.17, 7.97, 2.39, 1.96, 8.76, repro,
2005-11-12,-2.18, 2.58, 4.76, 2.07, 1.72, 7.55, repro,
2005-11-13,-2.12, 2.92, 0.85, 2.21, 1.79, 7.98, repro,
2005-11-14,-3.00, 1.94, 4.54, 2.12, 1.72, 7.61, repro,
2005-11-15,-3.75, 1.94, -1.27, 2.05, 1.61, 7.36, repro,
2005-11-16,-2.32, 1.74, -4.12, 2.08, 1.65, 7.53, repro,
2005-11-17,-2.82, 1.78, -0.81, 2.04, 1.61, 7.38, repro,
2005-11-19,-2.08, 1.99, 4.11, 2.07, 1.65, 7.47, repro,
2005-11-20,-3.32, 2.38, 0.96, 2.10, 1.69, 7.65, repro,
2005-11-21,-2.59, -0.50, 6.26, 2.12, 1.68, 7.79, repro,
2005-11-22,-2.95, 1.09, 6.57, 2.12, 1.72, 7.79, repro,
2005-11-23,-2.48, 1.46, 9.73, 2.08, 1.64, 7.55, repro,
2005-11-24,-3.12, 1.58, 10.99, 2.05, 1.65, 7.53, repro,
2005-11-25,-3.37, 1.76, 20.09, 2.06, 1.67, 7.55, repro,
2005-11-26,0.05, 0.60, 5.70, 2.15, 1.74, 7.85, repro,
2005-11-27,-3.36, 0.43, 11.78, 2.08, 1.69, 7.67, repro,
2005-11-28,-1.98, 1.28, 7.58, 2.12, 1.71, 7.78, repro,
2005-11-29,-3.49, 1.00, 7.92, 2.11, 1.69, 7.66, repro,
2005-11-30,-2.77, 1.26, 6.96, 2.07, 1.68, 7.55, repro,
2005-12-01,-3.61, 0.49, 7.54, 2.06, 1.64, 7.41, repro,
2005-12-02,-3.65, -1.46, 12.45, 2.08, 1.67, 7.53, repro,
2005-12-03,-1.68, 0.91, 1.92, 2.07, 1.64, 7.46, repro,
2005-12-04,-2.28, 1.54, 2.65, 2.06, 1.64, 7.41, repro,
2005-12-05,-2.74, 1.03, 4.63, 2.04, 1.63, 7.32, repro,
2005-12-06,-2.71, 1.61, 8.21, 2.13, 1.71, 7.66, repro,
2005-12-07,-2.45, 0.86, 9.85, 2.09, 1.69, 7.61, repro,
2005-12-08,-2.94, 0.77, 8.16, 2.12, 1.70, 7.72, repro,
2005-12-09,-1.06, 0.11, 4.73, 2.07, 1.65, 7.47, repro,
2005-12-10,-2.38, 1.22, 8.22, 2.06, 1.68, 7.56, repro,
2005-12-11,-2.00, 0.60, 13.38, 2.03, 1.61, 7.38, repro,
2005-12-12,-2.43, 0.62, 14.85, 2.04, 1.63, 7.38, repro,
2005-12-13,-1.65, 1.39, 14.06, 2.05, 1.65, 7.51, repro,
2005-12-14,-1.73, 0.09, 4.83, 2.06, 1.64, 7.43, repro,
2005-12-15,-1.67, -0.21, 5.05, 2.09, 1.66, 7.55, repro,
2005-12-16,-1.70, 0.44, 12.71, 2.05, 1.64, 7.50, repro,
2005-12-17,-2.43, 0.33, 10.71, 2.08, 1.68, 7.54, repro,
2005-12-18,-1.39, -0.39, 15.66, 2.10, 1.69, 7.53, repro,
2005-12-19,-0.89, -0.49, 11.96, 2.16, 1.79, 7.64, repro,
2005-12-20,0.74, 0.67, 10.19, 2.12, 1.79, 7.68, repro,
2005-12-21,-0.34, 1.07, 13.58, 2.06, 1.73, 7.46, repro,
2005-12-22,1.03, 1.13, 4.63, 2.09, 1.77, 7.63, repro,
2005-12-23,1.42, 0.26, 8.19, 2.17, 1.80, 7.75, repro,
2005-12-24,-0.09, 0.67, 11.43, 2.26, 1.88, 8.14, repro,
2005-12-25,-0.55, -0.14, 17.63, 2.09, 1.70, 7.47, repro,
2005-12-26,-0.72, 0.33, 18.16, 2.07, 1.66, 7.48, repro,
2005-12-27,-0.20, 0.68, 13.00, 2.15, 1.75, 7.78, repro,
2005-12-28,0.67, 0.23, 9.59, 2.09, 1.67, 7.46, repro,
2005-12-29,0.26, -0.41, 16.67, 2.20, 1.79, 7.83, repro,
2005-12-30,0.04, 0.86, 16.80, 2.21, 1.82, 7.91, repro,
2005-12-31,-0.89, 0.79, 26.62, 2.22, 1.87, 8.23, repro,
2006-01-01,-1.54, -0.45, 13.85, 2.16, 1.76, 7.77, repro,
2006-01-02,0.33, 0.26, 19.80, 2.08, 1.66, 7.41, repro,
2006-01-03,-0.54, 1.78, 12.92, 2.31, 1.94, 8.20, repro,
2006-01-04,1.02, 0.61, 9.68, 2.35, 1.91, 8.34, repro,
2006-01-05,1.49, 1.11, 9.07, 2.16, 1.79, 7.75, repro,
2006-01-06,1.77, 0.38, 12.26, 2.24, 1.85, 8.14, repro,
2006-01-07,1.64, 0.48, 16.64, 2.18, 1.77, 7.89, repro,
2006-01-08,1.09, 1.47, 16.71, 2.14, 1.79, 7.67, repro,
2006-01-09,1.80, 0.20, 12.71, 2.20, 1.83, 7.98, repro,
2006-01-10,1.96, 0.58, 12.76, 2.22, 1.84, 8.01, repro,
2006-01-11,3.83, 0.02, 17.41, 2.20, 1.82, 7.95, repro,
2006-01-12,0.77, 0.71, 16.51, 2.11, 1.71, 7.53, repro,
2006-01-13,0.84, 1.29, 15.39, 2.24, 1.85, 8.13, repro,
2006-01-14,-1.41, 1.32, 22.63, 2.08, 1.67, 7.44, repro,
2006-01-15,1.53, -0.04, 19.79, 2.08, 1.68, 7.47, repro,
2006-01-16,2.44, 1.48, 14.13, 2.19, 1.85, 7.79, repro,
2006-01-17,2.13, 0.57, 16.04, 2.13, 1.75, 7.58, repro,
2006-01-18,2.02, 0.67, 22.60, 2.07, 1.66, 7.43, repro,
2006-01-19,2.34, 1.28, 15.88, 2.12, 1.66, 7.62, repro,
2006-01-20,1.38, 0.80, 13.06, 2.10, 1.65, 7.57, repro,
2006-01-21,1.27, 2.06, 16.62, 2.08, 1.64, 7.40, repro,
2006-01-22,1.46, 0.73, 12.40, 2.06, 1.61, 7.23, repro,
2006-01-23,1.83, 0.76, 20.93, 2.04, 1.59, 7.20, repro,
2006-01-24,1.37, 1.24, 19.94, 2.10, 1.64, 7.43, repro,
2006-01-25,1.04, 0.40, 18.86, 2.00, 1.58, 7.16, repro,
2006-01-26,2.64, 0.64, 11.87, 1.99, 1.57, 7.16, repro,
2006-01-27,2.33, 1.92, 14.10, 2.01, 1.59, 7.27, repro,
2006-01-28,2.42, 0.63, 18.19, 2.00, 1.56, 7.09, repro,
2006-01-29,1.22, 0.31, 17.50, 2.00, 1.56, 7.17, repro,
2006-01-30,2.69, 1.15, 17.12, 2.03, 1.57, 7.26, repro,
2006-01-31,2.92, 0.75, 20.62, 2.03, 1.58, 7.26, repro,
2006-02-01,2.03, 0.63, 17.94, 2.03, 1.59, 7.33, repro,
2006-02-02,1.92, 0.49, 20.89, 2.02, 1.59, 7.29, repro,
2006-02-03,0.98, 0.09, 22.28, 2.06, 1.63, 7.39, repro,
2006-02-04,0.24, 1.33, 18.74, 2.03, 1.57, 7.27, repro,
2006-02-05,0.63, 1.40, 15.83, 2.03, 1.57, 7.23, repro,
2006-02-06,0.61, 0.91, 13.92, 2.02, 1.57, 7.25, repro,
2006-02-07,1.27, 0.87, 17.50, 2.00, 1.57, 7.29, repro,
2006-02-08,1.85, 0.94, 14.30, 2.00, 1.55, 7.22, repro,
2006-02-09,1.11, 0.07, 18.54, 2.08, 1.57, 7.50, repro,
2006-02-10,1.14, 0.70, 17.64, 2.15, 1.59, 7.60, repro,
2006-02-11,1.25, 0.01, 16.15, 2.02, 1.57, 7.32, repro,
2006-02-12,1.92, 0.42, 11.42, 2.02, 1.56, 7.32, repro,
2006-02-13,0.52, 1.70, 17.59, 2.02, 1.56, 7.29, repro,
2006-02-14,1.19, 1.42, 25.96, 2.01, 1.54, 7.26, repro,
2006-02-15,2.84, 0.60, 22.63, 2.02, 1.55, 7.29, repro,